Mountain Home, ID

9:17 AM MDT on May 25, 2017 (GMT -0600)
Mountain Home Air Force Base

Weather History for KMUO - January, 2013

Change the Weather History Date:

Sunday, January 6, 2013

  Actual Average Record
Temperature  
Mean Temperature 12 °F -  
Max Temperature 22 °F 37 °F 55 °F (1966)
Min Temperature 2 °F - -18 °F (2017)
Degree Days  
Heating Degree Days 53 36  
Month to date heating degree days 284 216  
Cooling Degree Days 0 0  
Month to date cooling degree days 0 0  
Moisture  
Dew Point 11 °F    
Average Humidity 99    
Maximum Humidity 100    
Minimum Humidity 72    
Precipitation  
Precipitation 0.00 in 0.04 in 0.79 in (1907)
Month to date precipitation T 0.23  
Sea Level Pressure  
Sea Level Pressure 30.31 in    
Wind  
Wind Speed 3 mph (West)    
Max Wind Speed 9 mph    
Max Gust Speed -    
Visibility 8 miles    
Events      
T = Trace of Precipitation, MM = Missing Value Source: NWS Daily Summary

Daily Weather History Graph

Daily Weather History Graph

Search for Another Location

Airport or City:

Trip Planner

Search our weather history database for the weather conditions in past years. The results will help you decide how hot, cold, wet, or windy it might be!

Date:

Astronomy

Jan. 06, 2013 Rise Set
Actual Time 8:14 AM MST 5:24 PM MST
Civil Twilight 7:42 AM MST 5:56 PM MST
Nautical Twilight 7:07 AM MST 6:32 PM MST
Astronomical Twilight 6:32 AM MST 7:06 PM MST
Moon 2:30 AM MST (1/6) 12:57 PM MST (1/6)
Length of Visible Light 10h 13m
Length of Day
9h 09m
Waning Crescent, 32% of the Moon is Illuminated
Jan 6
Waning Crescent
Jan 11
New
Jan 18
First Quarter
Jan 26
Full
Feb 3
Last Quarter

Hourly Weather History & Observations

Time (MST) Temp. Windchill Dew Point Humidity Pressure Visibility Wind Dir Wind Speed Gust Speed Precip Events Conditions
12:58 AM 16.3 °F - 16.3 °F 100% 30.38 in 10.0 mi West 2.3 mph - N/A   Mostly Cloudy
1:58 AM 15.8 °F - 15.8 °F 100% 30.38 in 10.0 mi Calm Calm - N/A   Scattered Clouds
2:58 AM 16.7 °F - 16.7 °F 100% 30.36 in 10.0 mi Calm Calm - N/A   Mostly Cloudy
3:58 AM 16.5 °F - 16.5 °F 100% 30.37 in 10.0 mi WSW 2.3 mph - N/A   Overcast
4:28 AM 15.8 °F - 15.8 °F 100% 30.23 in 9.0 mi West 2.3 mph - N/A   Partly Cloudy
4:58 AM 14.7 °F 7.3 °F 14.7 °F 100% 30.38 in 7.0 mi West 4.6 mph - N/A   Partly Cloudy
5:58 AM 13.3 °F 5.6 °F 13.3 °F 100% 30.35 in 8.0 mi SSW 4.6 mph - N/A   Clear
6:58 AM 11.7 °F 3.7 °F 11.7 °F 100% 30.35 in 7.0 mi SSW 4.6 mph - N/A   Clear
7:58 AM 9.7 °F -1.3 °F 9.7 °F 100% 30.37 in 7.0 mi NW 6.9 mph - N/A   Clear
8:03 AM 10.4 °F -2.4 °F 10.4 °F 100% 30.21 in 7.0 mi NNW 9.2 mph - N/A   Clear
8:58 AM 8.4 °F - 8.4 °F 100% 30.38 in 6.0 mi North 2.3 mph - N/A   Overcast
9:58 AM 14.2 °F - 14.2 °F 100% 30.37 in 6.0 mi NW 2.3 mph - N/A   Overcast
10:58 AM 19.2 °F - 19.0 °F 99% 30.35 in 7.0 mi WSW 2.3 mph - N/A   Overcast
11:58 AM 17.4 °F 9.1 °F 17.4 °F 100% 30.34 in 7.0 mi West 5.8 mph - N/A   Overcast
12:58 PM 19.6 °F 9.7 °F 19.0 °F 98% 30.32 in 10.0 mi WNW 8.1 mph - N/A   Partly Cloudy
1:58 PM 21.2 °F 12.6 °F 20.7 °F 98% 30.29 in 10.0 mi WNW 6.9 mph - N/A   Clear
2:58 PM 20.8 °F 12.1 °F 18.7 °F 91% 30.30 in 10.0 mi WNW 6.9 mph - N/A   Clear
3:58 PM 22.5 °F 15.1 °F 14.5 °F 72% 30.29 in 10.0 mi West 5.8 mph - N/A   Clear
4:58 PM 20.1 °F 11.3 °F 19.2 °F 96% 30.30 in 10.0 mi SSW 6.9 mph - N/A   Clear
5:58 PM 14.7 °F 7.3 °F 14.7 °F 100% 30.32 in 10.0 mi West 4.6 mph - N/A   Clear
6:08 PM 12.2 °F 6.1 °F 12.2 °F 100% 30.18 in 10.0 mi West 3.5 mph - N/A   Clear
6:58 PM 9.7 °F 1.4 °F 9.7 °F 100% 30.36 in 7.0 mi West 4.6 mph - N/A   Clear
7:58 PM 9.9 °F - 9.9 °F 100% 30.35 in 5.0 mi Variable 1.2 mph - N/A   Clear
8:08 PM 12.2 °F - 12.2 °F 100% 30.20 in 6.0 mi NW 1.2 mph - N/A   Clear
8:58 PM 6.8 °F - 6.8 °F 100% 30.39 in 9.0 mi Calm Calm - N/A   Clear
9:08 PM 6.8 °F - 6.8 °F 100% 30.22 in 10.0 mi East 1.2 mph - N/A   Clear
9:38 PM 3.2 °F -6.2 °F 3.2 °F 100% 30.24 in 9.0 mi ENE 4.6 mph - N/A   Partly Cloudy
9:58 PM 3.6 °F -7.3 °F 3.6 °F 100% 30.40 in 7.0 mi ENE 5.8 mph - N/A   Mostly Cloudy
10:03 PM 5.0 °F -5.6 °F 5.0 °F 100% 30.24 in 8.0 mi ENE 5.8 mph - N/A   Scattered Clouds
10:33 PM 3.2 °F - 3.2 °F 100% 30.23 in 8.0 mi Calm Calm - N/A   Mostly Cloudy
10:38 PM 3.2 °F - 3.2 °F 100% 30.23 in 9.0 mi Calm Calm - N/A   Scattered Clouds
10:58 PM 4.3 °F - 4.3 °F 100% 30.40 in 8.0 mi Calm Calm - N/A   Partly Cloudy
11:08 PM 5.0 °F - 5.0 °F 100% 30.23 in 8.0 mi SE 2.3 mph - N/A   Mostly Cloudy
11:18 PM 5.0 °F -2.1 °F 5.0 °F 100% 30.24 in 8.0 mi ESE 3.5 mph - N/A   Scattered Clouds
11:28 PM 5.0 °F -4.1 °F 5.0 °F 100% 30.25 in 7.0 mi ESE 4.6 mph - N/A   Mostly Cloudy
11:58 PM 6.3 °F -0.7 °F 6.3 °F 100% 30.40 in 8.0 mi ESE 3.5 mph - N/A   Overcast